THOR ABLESTAR R/B, 1508

Orbit data source: Space-Track

THOR ABLESTAR R/B, 1508 is space debris in LEO originally from a launch on Fri, 13 Aug 1965 UTC launched from the Air Force Western Test Range (AFWTR). Debris objects in space refer to the collection of defunct objects orbiting the Earth. Examples of debris include non-operational satellites, rocket bodies, and fragments generated from explosions, collisions, or faulty payload assembly.

Loading next visibility...
Identifier
1508, 1965-065B
Orbit
LEO
Country
Flag of USUS
Related business
Manufacturer
Aerojet
Mission
Spacecraft
Bus & Motor
ABLESTAR, Unknown motor
Mass
~600 kg wet, 600 kg dry
Launch date (UTC)
1965-08-13 (60 years ago)
Launch vehicle
Unknown
Launch site
Air Force Western Test Range (AFWTR)
Object type
Payload
Rocket body
Debris
Shape & HBR
Unknown
Radar Cross Section
Large (>1 m²)

Expand to show TLE details & history
Last TLE update: 10 hours ago

TLE from 10 hours ago
0 THOR ABLESTAR R/B
1 01508U 65065B   26034.54264029  .00000047  00000-0  74555-4 0  9994
2 01508  90.1419 305.9562 0041801 351.7611 181.8755 13.36088352947563
Epoch: 2026-02-03T13:01Z
TLE epoch observation values (Epoch: 2026-02-03T13:01:24.121Z)
Latitude
6.30227°
Longitude
156.89921°
Altitude
1,157.572 km
Speed
7.26 km/s
True Right ascension
08h 23m 53s
True Declination
6° 16' 01"
Sunlit
Object was in full shadow at epoch
Visualization orbit readout
Latitude
Unknown
Longitude
Unknown
Altitude
Unknown
Speed
Unknown
Apparent Right ascension
Unknown
Apparent Declination
Unknown
Sunlit
N/A
Visualization observer readout
Local Sidereal Time
01:10:30
Azimuth
Unknown
Elevation
Unknown
Doppler factor
Unknown
Orbital elements
Apogee altitude
1,152.303 km
Perigee altitude
1,089.609 km
Semi-major axis
7,499.093 km
Eccentricity
0.00418
Inclination
90.1419°
RAAN
305.9562°
Arg. of periapsis
351.7611°
True anomaly
181.8599°
Mean anomaly
181.8755°
Eccentric anomaly
181.86769°
Mean motion
3.34218 °/min
Orbital period
107.71 mins
BSTAR
0.000074555
Loading maneuver chart data...
Computing Atmospheric mass density...
Loading historical data...
Loading historical data...
Loading historical data...
Loading historical data...
Loading historical data...
Loading historical data...
Loading historical data...

Documentation

Showing up to 5 results
|